Location: Amsterdam
(30.7274°N, 84.4357°W)
Time: 08:42:18
(UTC+00:00)

MOZHAYETS 4 - Pass Details

Date: 20 March 2026
Orbit: 642 x 659 km, 98.3° (Epoch: 19 April)

Event Time Altitude Azimuth Distance (km) Brightness Sun altitude
Rises 10:36:07 0° 162° (SSE) 2,973 11.2 -14.8°
Reaches altitude 10° 10:38:20 10° 160° (SSE) 2,065 10.4 -14.4°
Maximum altitude 10:42:49 72° 77° (ENE) 694 8.0 -13.4°
Drops below altitude 10° 10:47:20 10° 352° (N) 2,073 10.3 -12.4°
Sets 10:49:33 0° 351° (N) 2,986 11.1 -12.0°
